Regional Weather Roundup
Issued by NWS

Home | Current Version | Previous Version | Graphics & Text | Print | Product List | Glossary On
Versions: 1 2 3 4 5 6 7 8 9 10 11 12 13 14 15 16 17 18 19 20 21 22 23 24 25 26 27 28 29 30 31 32 33 34 35 36 37 38 39 40 41 42 43 44 45 46 47 48 49 50
000
ASUS43 KMPX 012010
RWRMN
WEATHER ROUNDUP FOR MINNESOTA
NATIONAL WEATHER SERVICE TWIN CITIES/CHANHASSEN MN
200 PM CST SUN MAR 01 2015


NOTE: "FAIR" INDICATES FEW OR NO CLOUDS BELOW 12,000 FEET WITH NO
SIGNIFICANT WEATHER AND/OR OBSTRUCTIONS TO VISIBILITY. N/A MEANS
CURRENT SKY AND/OR WEATHER CONDITIONS ARE NOT AVAILABLE.

MNZ060>063-068>070-012100-
   Twin Cities Metro

CITY           SKY/WX    TMP DP  RH WIND       PRES   REMARKS
TWIN CITIES    MOSUNNY   25   7  46 W17       30.23  WCI  12
ST PAUL        SUNNY     26   5  40 W17       30.25  WCI  13
CRYSTAL        SUNNY     27   8  44 W10G21    30.22  WCI  17
BLAINE         MOSUNNY   27   9  46 W17G23    30.22  WCI  14
LAKEVILLE      SUNNY     23  10  58 W18       30.24S WCI   9
EDEN PRAIRIE   SUNNY     26   8  46 W21G28    30.23F WCI  12
SOUTH ST PAUL  SUNNY     26   7  43 W17G23    30.24S WCI  13
LAKE ELMO      FAIR      27  10  50 W15       30.23S WCI  15
$$
MNZ001>005-007-008-013>017-022>024-027-028-012100-
   Northwest Minnesota

CITY           SKY/WX    TMP DP  RH WIND       PRES   REMARKS
BEMIDJI        MOSUNNY   17   8  67 W15       30.13S WCI   3
HALLOCK        CLOUDY    18  10  73 NW14      30.21R WCI   4
ROSEAU         PTSUNNY   16   9  73 W12G18    30.14S WCI   3
WARROAD        CLOUDY    16   9  73 SW14      30.12S WCI   1
THIEF RVR FALL PTSUNNY   12   9  85 W12       30.19R WCI  -2
CROOKSTON      LGT SNOW  18  12  79 NW14      30.22S WCI   4
FOSSTON        LGT SNOW  18   9  68 W12       30.18S WCI   5
DETROIT LAKES  MIX PCPN  19  12  73 W8        30.18F WCI   9
MOORHEAD       FLURRIES  21  18  86 NW16      30.23S WCI   7
PARK RAPIDS    CLOUDY    20  10  65 W15       30.13  WCI   6
MAHNOMEN       LGT SNOW  17  12  80 W12       30.18S WCI   4
$$
MNZ006-009>011-018-025>026-012100-
   North Central Minnesota

CITY           SKY/WX    TMP DP  RH WIND       PRES   REMARKS
BAUDETTE       PTSUNNY   18   5  57 W10       30.09F WCI   6
FLAG ISLAND    PTSUNNY   18   7  62 NW14      30.09S WCI   4
INTL FALLS     MOSUNNY   17   4  56 W12       30.07  WCI   4
WASKISH        PTSUNNY   16   9  73 SW12      30.13S HAZE    WCI   3
BIG FORK       MOSUNNY   21   7  53 W12G22    30.09F WCI   9
LONGVILLE      CLOUDY    25   7  46 SW12G17   30.12F WCI  14
GRAND RAPIDS   CLOUDY    19   7  58 W12       30.09F WCI   7
CRANE LAKE     PTSUNNY   19   3  49 W6        30.08S WCI  11
ORR            PTSUNNY   19   3  49 W9        30.04F WCI   9
COOK           MOSUNNY   19   7  58 W15       30.06F WCI   5
WALKER         CLOUDY    22   7  53 W17       30.11S WCI   8
$$
MNZ012-019>021-037-012100-
   Northeast Minnesota

CITY           SKY/WX    TMP DP  RH WIND       PRES   REMARKS
DULUTH         MOSUNNY   22   4  46 W18G25    30.06  WCI   7
ELY            SUNNY     21   1  42 W15G21    30.02F WCI   8
HIBBING        CLOUDY    21   6  52 W14G22    30.07  WCI   8
EVELETH        MOSUNNY   21   7  53 W14       30.06F WCI   8
DULUTH HARBOR  SUNNY     25   7  46 W20       30.13F WCI  11
SILVER BAY     SUNNY     28   1  31 W9        30.02F WCI  20
GRAND MARAIS     N/A     29   9  43 W12G23    30.03  WCI  19
G MARAIS ARPRT MOSUNNY   23   0  36 SW10G18   29.95F WCI  12
$$
MNZ029>031-032-039>041-046>048-054>057-064-012100-
   West Central Minnesota

CITY           SKY/WX    TMP DP  RH WIND       PRES   REMARKS
FERGUS FALLS   LGT SNOW  21  14  73 W16G22    30.24S WCI   7
MORRIS         MOSUNNY   27  12  54 W20       30.22S WCI  13
ALEXANDRIA     SUNNY     22   9  57 W15       30.19F WCI   9
ELBOW LAKE     PTSUNNY   23  13  64 W17       30.21S WCI   9
WADENA         LGT SNOW  19  10  68 W10G18    30.17S WCI   8
APPLETON       FAIR      30  16  55 W23       30.25S WCI  17
BENSON         PTSUNNY   28  12  50 NW14      30.23S WCI  17
ORTONVILLE     PTSUNNY   27  12  54 NW16G26   30.24S WCI  14
MADISON        MOSUNNY   30  16  55 W20       30.25S WCI  18
WILLMAR        FAIR      28  12  50 W18       30.24S WCI  16
$$
MNZ033>034-036-042>043-049>051-058-059-012100-
   Central Minnesota

CITY           SKY/WX    TMP DP  RH WIND       PRES   REMARKS
ST CLOUD       CLOUDY    25   8  48 W17       30.20  WCI  12
SAUK CENTRE    FAIR      24   9  53 W15G22    30.20F WCI  11
PAYNESVILLE    MOSUNNY   25   9  51 SW17G23   30.21F WCI  11
PINE RIVER     PTSUNNY   23   9  54 W10G17    30.16F WCI  12
BRAINERD       MOSUNNY   22   6  50 W13G20    30.16F WCI  10
STAPLES        CLOUDY    21  10  63 W18       30.17S WCI   6
LONG PRAIRIE   FAIR      23   7  50 W12G21    30.19F WCI  12
LITTLE FALLS   MOSUNNY   27   9  46 W10G17    30.18F WCI  17
LITCHFIELD     MOSUNNY   27  12  54 W12G21    30.23F WCI  16
BUFFALO        SUNNY     25   9  50 W14G21    30.24F WCI  13
MAPLE LAKE     SUNNY     27  12  53 W13G20    30.23F WCI  16
$$
MNZ037-044-045-052-053-012100-
   East Central Minnesota

CITY           SKY/WX    TMP DP  RH WIND       PRES   REMARKS
PRINCETON      MOSUNNY   27   9  46 W15       30.20F WCI  15
MORA           MOSUNNY   25   9  50 W12G18    30.19F WCI  14
CAMBRIDGE      MOSUNNY   27  10  50 W13G20    30.18F WCI  16
RUSH CITY      MOSUNNY   23   8  51 W13G18    30.20F WCI  11
MOOSE LAKE     PTSUNNY   25   3  39 W12G18    30.12F WCI  14
HINCKLEY       FAIR      25   9  50 W15G22    30.17S WCI  12
CLOQUET        SUNNY     21   1  42 W16G24    30.09F WCI   7
MCGREGOR       MOSUNNY   23   7  50 W9G17     30.13F WCI  13
$$
MNZ071>073-080-081-089-090-097-098-012100-
   Southwest Minnesota

CITY           SKY/WX    TMP DP  RH WIND       PRES   REMARKS
MONTEVIDEO     PTSUNNY   30  14  51 NW17G23   30.25F WCI  18
GRANITE FALLS  PTSUNNY   29  15  56 W20       30.27F WCI  16
CANBY          SUNNY     30  13  51 W16G24    30.26F WCI  18
MARSHALL       SUNNY     28  10  47 W25       30.27F WCI  14
REDWOOD FALLS  SUNNY     29  12  49 W17G28    30.25  WCI  17
OLIVIA         SUNNY     28  16  59 W22       30.24S WCI  15
PIPESTONE      SUNNY     27  12  54 W18       30.26F WCI  13
WINDOM         SUNNY     28  12  50 W21G29    30.26S WCI  15
WORTHINGTON    MOSUNNY   34  12  40 W20       30.29F WCI  22
JACKSON        MOSUNNY   28  14  54 W20G29    30.27S WCI  15
TRACY          SUNNY     30  13  49 W15G22    30.26F WCI  19
SLAYTON        SUNNY     27  10  49 W17G26    30.26F WCI  14
$$
MNZ065>067-074>077-082>085-091>093-012100-
   South Central Minnesota

CITY           SKY/WX    TMP DP  RH WIND       PRES   REMARKS
MANKATO        SUNNY     25  10  54 W16G26    30.27S WCI  12
NEW ULM        MOSUNNY   27  12  54 W20       30.26F WCI  13
ST JAMES       SUNNY     28  12  50 W16       30.28F WCI  17
FAIRMONT       PTSUNNY   27  12  54 W14G22    30.27F WCI  15
GLENCOE        SUNNY     27  15  59 W13       30.24F WCI  17
FARIBAULT      SUNNY     25  10  54 W13G23    30.26F WCI  13
OWATONNA       SUNNY     23  10  58 W15       30.26S WCI  10
WASECA         SUNNY     25  12  58 W18       30.28F WCI  11
ALBERT LEA     SUNNY     23  10  58 W13G20    30.27S WCI  11
$$
MNZ078>079-086>088-094>096-012100-
   Southeast Minnesota

CITY           SKY/WX    TMP DP  RH WIND       PRES   REMARKS
ROCHESTER      SUNNY     19   8  62 W16       30.25  WCI   4
RED WING       SUNNY     25   7  46 NW10G18   30.24F WCI  15
STANTON        SUNNY     24   9  53 W13       30.24F WCI  13
DODGE CENTER   MOSUNNY   19  10  68 W15       30.24S WCI   5
WINONA         SUNNY     27   9  46 W13       30.27S WCI  16
AUSTIN         SUNNY     21   9  58 W14G21    30.26S WCI   8
PRESTON        SUNNY     19   9  63 W17G23    30.26R WCI   4
$$
ABBREVIATIONS USED IN REMARKS
   TC - TEMPERATURES IN CELSIUS
  WCI - WIND CHILL INDEX
   HX - HEAT INDEX
  VSB - VISIBILITY
$$



USA.gov is the U.S. government's official web portal to all federal, state and local government web resources and services.